Location: Wavehorne
(51.0500°N, 0.8333°E)
Time: 18:12:04
(UTC+00:00)

Cosmos 1656 Rocket - Pass Details

Date: 20 June 2021
Orbit: 794 x 847 km, 71.1° (Epoch: 01 August)

Event Time Altitude Azimuth Distance (km) Brightness Sun altitude
Rises 00:16:14 0° 331° (NNW) 3,420 7.8 -15.4°
Reaches altitude 10° 00:18:44 10° 334° (NNW) 2,483 7.1 -15.4°
Maximum altitude 00:24:24 63° 56° (NE) 947 4.1 -15.3°
Drops below altitude 10° 00:30:01 10° 137° (SE) 2,460 5.7 -15.2°
Enters shadow 00:30:19 - 138° (SE) 2,574 5.8 -15.2°
